Location: Krasnoyarskiy Pitomnik
(51.1333°N, 71.6167°E)
Time: 15:38:17
(UTC+00:00)

Meteor 1-21 Rocket - Pass Details

Date: 22 October 2021
Orbit: 834 x 906 km, 81.2° (Epoch: 27 November)

Event Time Altitude Azimuth Distance (km) Brightness Sun altitude
Rises 12:29:31 0° 348° (NNW) 3,504 7.4 -4.3°
Reaches altitude 10° 12:32:00 10° 352° (N) 2,570 6.7 -4.7°
Maximum altitude 12:37:51 66° 74° (ENE) 985 4.4 -5.6°
Drops below altitude 10° 12:43:42 10° 157° (SSE) 2,582 6.6 -6.5°
Sets 12:46:11 0° 160° (SSE) 3,521 7.3 -6.9°
